Weather History for KDVN - May, 2012

Change the Weather History Date:

Thursday, May 24, 2012

  Actual Average Record
Temperature  
Mean Temperature 78 °F 64 °F  
Max Temperature 92 °F 75 °F 92 °F (2012)
Min Temperature 63 °F 53 °F 39 °F (2001)
Degree Days  
Heating Degree Days 0 4  
Month to date heating degree days 53 162  
Since 1 July heating degree days 5221 6466  
Cooling Degree Days 13 2  
Month to date cooling degree days 72 34  
Year to date cooling degree days 110 40  
Growing Degree Days 30 (Base 50)    
Moisture  
Dew Point 54 °F    
Average Humidity 51    
Maximum Humidity 73    
Minimum Humidity 28    
Precipitation  
Precipitation 0.00 in 0.16 in 1.45 in (1966)
Month to date precipitation 3.19 3.30  
Year to date precipitation 12.20 11.86  
Snow  
Snow 0.00 in - - ()
Month to date snowfall 0.0  
Since 1 July snowfall 21.2  
Snow Depth 0.00 in    
Sea Level Pressure  
Sea Level Pressure 29.59 in    
Wind  
Wind Speed 20 mph (South)    
Max Wind Speed 37 mph    
Max Gust Speed 46 mph    
Visibility 10 miles    
Events      
T = Trace of Precipitation, MM = Missing Value Source: NWS Daily Summary

Daily Weather History Graph

Daily Weather History Graph

Search for Another Location

Airport or City:

Trip Planner

Search our weather history database for the weather conditions in past years. The results will help you decide how hot, cold, wet, or windy it might be!

Date:

Astronomy

May. 24, 2012 Rise Set
Actual Time 5:34 AM CDT 8:24 PM CDT
Civil Twilight 5:02 AM CDT 8:56 PM CDT
Nautical Twilight 4:21 AM CDT 9:38 PM CDT
Astronomical Twilight 3:33 AM CDT 10:25 PM CDT
Moon 8:35 AM CDT (5/24) 11:23 PM CDT (5/24)
Length of Visible Light 15h 54m
Length of Day
14h 49m
Waxing Crescent, 12% of the Moon is Illuminated
May 24
Waxing Crescent
May 28
First Quarter
Jun 4
Full
Jun 11
Last Quarter
Jun 19
New

Hourly Weather History & Observations

Time (CDT) Temp. Heat Index Dew Point Humidity Pressure Visibility Wind Dir Wind Speed Gust Speed Precip Events Conditions
12:52 AM 69.1 °F - 46.9 °F 45% 29.66 in 10.0 mi SSE 17.3 mph - N/A   Clear
1:52 AM 70.0 °F - 46.9 °F 44% 29.63 in 10.0 mi South 16.1 mph - N/A   Clear
2:52 AM 70.0 °F - 46.9 °F 44% 29.62 in 10.0 mi South 19.6 mph 28.8 mph N/A   Clear
3:52 AM 69.1 °F - 46.9 °F 45% 29.62 in 10.0 mi South 19.6 mph 27.6 mph N/A   Clear
4:52 AM 69.1 °F - 46.0 °F 44% 29.63 in 10.0 mi South 15.0 mph 21.9 mph N/A   Clear
5:52 AM 68.0 °F - 46.0 °F 45% 29.64 in 10.0 mi South 15.0 mph - N/A   Clear
6:52 AM 69.1 °F - 46.9 °F 45% 29.62 in 10.0 mi SSE 18.4 mph 25.3 mph N/A   Clear
7:52 AM 72.0 °F - 48.9 °F 44% 29.62 in 10.0 mi South 20.7 mph 26.5 mph N/A   Clear
8:52 AM 75.9 °F - 52.0 °F 43% 29.63 in 10.0 mi SSE 18.4 mph - N/A   Clear
9:52 AM 79.0 °F - 55.0 °F 44% 29.61 in 10.0 mi SSE 21.9 mph 26.5 mph N/A   Clear
10:52 AM 82.9 °F 82.6 °F 57.9 °F 42% 29.59 in 10.0 mi SSE 25.3 mph 31.1 mph N/A   Clear
11:52 AM 87.1 °F 86.5 °F 59.0 °F 39% 29.56 in 10.0 mi SSE 27.6 mph 34.5 mph N/A   Clear
12:52 PM 89.1 °F 87.7 °F 57.0 °F 34% 29.53 in 10.0 mi South 31.1 mph 40.3 mph N/A   Clear
1:52 PM 91.0 °F 88.9 °F 55.0 °F 29% 29.49 in 9.0 mi South 31.1 mph 44.9 mph N/A   Clear
2:52 PM 91.0 °F 88.7 °F 54.0 °F 28% 29.48 in 9.0 mi South 33.4 mph 44.9 mph N/A   Clear
3:52 PM 91.0 °F 89.2 °F 55.9 °F 30% 29.47 in 10.0 mi South 28.8 mph 42.6 mph N/A   Clear
4:52 PM 90.0 °F 88.1 °F 55.9 °F 31% 29.47 in 10.0 mi SSW 21.9 mph 35.7 mph N/A   Clear
5:52 PM 87.1 °F 85.1 °F 54.0 °F 32% 29.49 in 10.0 mi South 23.0 mph 35.7 mph N/A   Partly Cloudy
6:52 PM 86.0 °F 84.0 °F 53.1 °F 32% 29.50 in 10.0 mi SSW 18.4 mph 29.9 mph N/A   Overcast
7:52 PM 84.0 °F 83.3 °F 57.0 °F 40% 29.54 in 10.0 mi SSW 15.0 mph 26.5 mph N/A   Overcast
8:52 PM 82.0 °F 82.7 °F 61.0 °F 49% 29.57 in 10.0 mi SW 10.4 mph - N/A   Mostly Cloudy
9:37 PM 73.4 °F - 62.6 °F 69% 29.64 in 10.0 mi WNW 16.1 mph 25.3 mph N/A   Mostly Cloudy
9:52 PM 72.0 °F - 63.0 °F 73% 29.63 in 10.0 mi NW 16.1 mph 21.9 mph N/A   Mostly Cloudy
10:52 PM 70.0 °F - 60.1 °F 71% 29.70 in 10.0 mi WNW 16.1 mph 23.0 mph N/A   Mostly Cloudy
11:52 PM 68.0 °F - 57.9 °F 70% 29.73 in 10.0 mi WNW 16.1 mph 21.9 mph N/A   Clear